Location: Aghk�ilisa
(40.0189°N, 45.0097°E)
Time: 23:09:44
(UTC+00:00)

YAOGAN 6 - Pass Details

Date: 21 October 2019
Orbit: 465 x 506 km, 97.0° (Epoch: 13 November)

Event Time Altitude Azimuth Distance (km) Brightness Sun altitude
Rises 15:48:52 0° 187° (S) 2,579 6.3 -19.2°
Reaches altitude 10° 15:51:05 10° 197° (SSW) 1,696 5.5 -19.6°
Maximum altitude 15:54:25 33° 263° (W) 845 4.4 -20.2°
Drops below altitude 10° 15:57:45 10° 329° (NNW) 1,689 5.7 -20.9°
Sets 15:59:57 0° 339° (NNW) 2,568 6.6 -21.3°
